TimeEST,TemperatureF,Dew PointF,Humidity,Sea Level PressureIn,VisibilityMPH,Wind Direction,Wind SpeedMPH,Gust SpeedMPH,PrecipitationIn,Events,Conditions,WindDirDegrees,DateUTC
12:53 AM,64.9,48.9,56,30.04,10.0,NNE,12.7,20.7,N/A,,Clear,20,2012-11-22 05:53:00
1:53 AM,64.9,48.0,54,30.03,10.0,North,16.1,24.2,N/A,,Clear,10,2012-11-22 06:53:00
2:53 AM,64.9,46.9,52,30.03,10.0,North,16.1,23.0,N/A,,Clear,360,2012-11-22 07:53:00
3:53 AM,64.9,46.9,52,30.03,10.0,North,13.8,23.0,N/A,,Clear,10,2012-11-22 08:53:00
4:53 AM,64.0,46.0,52,30.04,10.0,North,16.1,24.2,N/A,,Clear,10,2012-11-22 09:53:00
5:53 AM,63.0,45.0,52,30.04,10.0,North,13.8,21.9,N/A,,Clear,360,2012-11-22 10:53:00
6:53 AM,63.0,44.1,50,30.06,10.0,North,12.7,19.6,N/A,,Clear,10,2012-11-22 11:53:00
7:53 AM,64.0,44.1,48,30.08,10.0,North,13.8,21.9,N/A,,Clear,360,2012-11-22 12:53:00
8:53 AM,66.0,46.0,48,30.10,10.0,North,12.7,23.0,N/A,,Clear,350,2012-11-22 13:53:00
9:53 AM,68.0,45.0,43,30.11,10.0,North,13.8,21.9,N/A,,Clear,350,2012-11-22 14:53:00
10:53 AM,70.0,45.0,41,30.10,10.0,North,8.1,16.1,N/A,,Clear,350,2012-11-22 15:53:00
11:53 AM,70.0,46.9,44,30.07,10.0,NNW,8.1,17.3,N/A,,Clear,330,2012-11-22 16:53:00
12:53 PM,71.1,46.9,42,30.05,10.0,NNW,9.2,16.1,N/A,,Clear,330,2012-11-22 17:53:00
1:53 PM,71.1,48.9,45,30.04,10.0,NNW,11.5,18.4,N/A,,Clear,340,2012-11-22 18:53:00
2:53 PM,71.1,48.9,45,30.03,10.0,NNW,9.2,-,N/A,,Clear,340,2012-11-22 19:53:00
3:53 PM,71.1,50.0,47,30.03,10.0,NNW,9.2,16.1,N/A,,Clear,340,2012-11-22 20:53:00
4:53 PM,70.0,50.0,49,30.05,10.0,NNW,8.1,-,N/A,,Clear,330,2012-11-22 21:53:00
5:53 PM,68.0,53.1,59,30.06,10.0,NNW,11.5,17.3,N/A,,Clear,330,2012-11-22 22:53:00
6:53 PM,68.0,55.0,63,30.07,10.0,NNW,9.2,-,N/A,,Clear,340,2012-11-22 23:53:00
7:53 PM,69.1,45.0,42,30.09,10.0,NNE,13.8,-,N/A,,Clear,20,2012-11-23 00:53:00
8:53 PM,68.0,46.9,47,30.11,10.0,NNE,13.8,20.7,N/A,,Clear,20,2012-11-23 01:53:00
9:53 PM,66.9,45.0,45,30.13,10.0,NNE,13.8,20.7,N/A,,Clear,20,2012-11-23 02:53:00
10:53 PM,64.9,44.1,47,30.12,10.0,North,12.7,21.9,N/A,,Clear,10,2012-11-23 03:53:00
11:53 PM,64.9,41.0,42,30.12,10.0,NNE,13.8,19.6,N/A,,Clear,20,2012-11-23 04:53:00